[[{"header":{"parameterUnit":"m.s-1","parameterCategory":1,"la1":30.2991,"la2":30.254,"lo1":-89.0895,"lo2":-89.0444,"dy":0.0017,"dx":0.0017,"nx":28,"ny":28,"refTime":"2025-06-14T21:00:00:Z","depth":0,"parameterNumber":2,"parameterNumberName":"U-component_of_WINDS"},"data":[0,0,0,0,0,0,0,0,0,0,0,0,0,0,0,0,0,0,0,0,0,0,0,0,0,0,0,0,0,0,0,0,0,0,0,0,0,0,0,0,0,0,0,0,0,0,0,0,0,0,0,0,0,0,0,0,0,0,-0.1714,-0.1714,0,-0.1696,-0.1696,-0.1695,-0.1691,-0.1691,-0.1692,-0.1692,-0.167,-0.1669,-0.1668,0,0,0,0,0,0,0,0,0,0,0,0,0,-0.1742,-0.1742,-0.1714,-0.1714,-0.1714,-0.1696,-0.1696,-0.1695,-0.1691,-0.1691,-0.1692,-0.1692,-0.167,-0.1669,-0.1668,0,0,0,0,0,0,0,0,0,0,0,0,0,-0.1728,-0.1742,-0.1714,-0.1709,-0.1709,-0.1696,-0.1696,-0.1695,-0.1691,-0.1691,-0.1692,-0.1692,-0.167,-0.1669,-0.1668,-0.1657,0,0,-0.1665,-0.1664,0,0,0,0,0,0,0,0,-0.1728,-0.1727,-0.171,-0.171,-0.1709,-0.1696,-0.1697,-0.1682,-0.1691,-0.1698,-0.1692,-0.1692,-0.1678,-0.1676,-0.1672,-0.1656,-0.1655,-0.1665,-0.1664,-0.1663,-0.1663,0,0,0,0,0,0,0,-0.1729,-0.1727,-0.1707,-0.171,-0.1709,-0.1707,-0.1706,-0.1695,-0.1687,-0.1697,-0.1697,-0.1695,-0.1678,-0.1673,-0.1672,-0.1655,-0.1665,-0.1664,-0.1663,-0.1662,-0.1629,-0.1628,0,0,0,0,0,0,-0.1732,-0.1728,-0.1707,-0.1706,-0.172,-0.1707,-0.1705,-0.17,-0.1687,-0.1685,-0.1695,-0.1695,-0.1675,-0.1673,-0.1671,-0.1657,-0.1663,-0.1662,-0.1662,-0.1629,-0.1629,-0.1628,0,0,0,0,0,0,-0.1732,-0.173,-0.1708,-0.1717,-0.1714,-0.1706,-0.1701,-0.1699,-0.1695,-0.1685,-0.1683,-0.1692,-0.1675,-0.1672,-0.1661,-0.1656,-0.1662,-0.1661,-0.1629,-0.1629,-0.1628,-0.163,0,0,0,0,0,0,-0.1733,-0.173,-0.1727,-0.1717,-0.1714,-0.1699,-0.1701,-0.1699,-0.1694,-0.1694,-0.1682,-0.168,-0.1675,-0.1662,-0.166,-0.1655,-0.166,-0.1629,-0.1629,-0.1629,-0.163,-0.163,-0.1629,0,0,0,0,0,-0.1734,-0.1727,-0.1726,-0.1724,-0.1709,-0.1699,-0.1697,-0.1692,-0.1693,-0.1689,-0.1683,-0.1681,-0.1658,-0.1661,-0.1658,-0.1653,-0.163,-0.1629,-0.1629,-0.163,-0.163,-0.1629,0,0,0,0,0,0,-0.1735,-0.1726,-0.1725,-0.1715,-0.1708,-0.1698,-0.1693,-0.1691,-0.1683,-0.1683,-0.1676,-0.1674,-0.1662,-0.1657,-0.1661,-0.1642,-0.1644,-0.1642,-0.1646,-0.1645,-0.1645,-0.1646,-0.1659,0,0,0,0,0,-0.1734,-0.1727,-0.1719,-0.1711,-0.1708,-0.1701,-0.1696,-0.1693,-0.1685,-0.1682,-0.1675,-0.1666,-0.1657,-0.1651,-0.1642,-0.163,-0.1627,-0.1625,-0.1624,-0.1624,-0.1622,-0.1615,-0.1614,-0.1626,-0.1626,-0.1626,0,0,-0.1732,-0.1726,-0.1722,-0.1711,-0.1705,-0.1697,-0.1698,-0.169,-0.1684,-0.168,-0.1669,-0.1664,-0.1654,-0.1642,-0.1636,-0.1636,-0.1619,-0.1623,-0.1623,-0.1622,-0.1615,-0.1614,-0.1613,-0.1626,-0.1626,-0.1626,0,0,-0.1723,-0.1719,-0.1711,-0.1706,-0.1698,-0.1694,-0.1692,-0.1683,-0.1679,-0.1668,-0.1665,-0.1658,-0.1642,-0.1635,-0.163,-0.162,-0.1617,-0.1617,-0.1614,-0.1607,-0.1606,-0.1605,-0.1601,-0.16,-0.1616,-0.1616,-0.1616,0,-0.1721,-0.1711,-0.1707,-0.1699,-0.1694,-0.1692,-0.1684,-0.1679,-0.1667,-0.1664,-0.1665,-0.1646,-0.1639,-0.1625,-0.1623,-0.1619,-0.1616,-0.1618,-0.1607,-0.1606,-0.1605,-0.1601,-0.16,-0.1616,-0.1616,-0.1616,-0.1616,0,-0.1708,-0.1701,-0.1695,-0.1686,-0.1681,-0.1673,-0.1667,-0.1662,-0.166,-0.1655,-0.1644,-0.1636,-0.1625,-0.1622,-0.1619,-0.1608,-0.1608,-0.1608,-0.161,-0.1604,-0.16,-0.1598,-0.1616,-0.1616,-0.1616,-0.1616,0,0,-0.1699,-0.1689,-0.1687,-0.1682,-0.1674,-0.1667,-0.1659,-0.165,-0.1646,-0.1638,-0.1631,-0.1618,-0.1618,-0.1612,-0.1608,-0.1602,-0.1595,-0.1603,-0.1602,-0.1601,-0.1581,-0.1581,-0.158,-0.1593,-0.1593,-0.1593,-0.1582,0,-0.1689,-0.1675,-0.1673,-0.166,-0.1653,-0.1651,-0.1644,-0.1638,-0.1633,-0.1626,-0.1621,-0.1612,-0.1613,-0.1609,-0.1603,-0.1597,-0.159,-0.1598,-0.1585,-0.1585,-0.1587,-0.1578,-0.1577,-0.1568,-0.1581,-0.158,-0.158,0,-0.1676,-0.1669,-0.1657,-0.165,-0.1646,-0.164,-0.1632,-0.1625,-0.1617,-0.1615,-0.1608,-0.1606,-0.1596,-0.1599,-0.1585,-0.159,-0.1585,-0.1581,-0.1581,-0.1579,-0.1582,-0.1575,-0.1564,-0.1563,-0.1578,-0.1578,-0.1578,0,-0.1669,-0.1658,-0.1649,-0.1645,-0.1637,-0.1632,-0.1628,-0.1621,-0.1616,-0.1608,-0.1605,-0.1596,-0.1591,-0.1583,-0.1578,-0.158,-0.1565,-0.1567,-0.1561,-0.1561,-0.1557,-0.1557,-0.1545,-0.1555,-0.1555,-0.1555,-0.1555,0,-0.1658,-0.1651,-0.1646,-0.164,-0.1632,-0.1628,-0.1619,-0.1615,-0.1609,-0.1602,-0.16,-0.1593,-0.1586,-0.1578,-0.1574,-0.1563,-0.1561,-0.1558,-0.1557,-0.1558,-0.1558,-0.1554,-0.1554,-0.1555,-0.1555,-0.1555,-0.1555,0,-0.165,-0.1646,-0.1636,-0.163,-0.1628,-0.1621,-0.1615,-0.1609,-0.1605,-0.1597,-0.1594,-0.1588,-0.1578,-0.1573,-0.156,-0.1557,-0.1545,-0.1545,-0.1548,-0.1548,-0.1542,-0.1543,-0.1526,-0.1524,-0.1536,-0.1536,-0.1536,0,-0.1642,-0.1637,-0.163,-0.1625,-0.1622,-0.1615,-0.161,-0.1606,-0.1601,-0.1593,-0.1588,-0.1579,-0.1571,-0.1556,-0.155,-0.154,-0.1539,-0.1534,-0.1537,-0.1539,-0.1538,-0.1538,-0.1537,-0.1533,-0.1533,-0.1533,-0.1533,0,-0.163,-0.1629,-0.1623,-0.1616,-0.161,-0.1605,-0.1599,-0.1595,-0.159,-0.1585,-0.1576,-0.157,-0.1559,-0.1549,-0.154,-0.1534,-0.1532,-0.1532,-0.153,-0.153,-0.1533,-0.1531,-0.1546,-0.1532,-0.1532,-0.1532,-0.1532,-0.1532,-0.1621,-0.1616,-0.1611,-0.1604,-0.1599,-0.1594,-0.1588,-0.1584,-0.1577,-0.1569,-0.1567,-0.1557,-0.155,-0.1537,-0.1532,-0.1524,-0.1524,-0.1522,-0.1521,-0.152,-0.152,-0.1535,-0.1522,-0.1522,-0.1522,-0.1522,-0.1522,0,-0.1608,-0.1605,-0.1599,-0.1591,-0.1586,-0.1586,-0.158,-0.1575,-0.1567,-0.1561,-0.1554,-0.1544,-0.1535,-0.1529,-0.1519,-0.1514,-0.1513,-0.1512,-0.1512,-0.151,-0.152,-0.1522,-0.1513,-0.1513,-0.1513,-0.1513,-0.1513,-0.1513,-0.16,-0.1592,-0.159,-0.1579,-0.1576,-0.1568,-0.1564,-0.1559,-0.1554,-0.1543,-0.1537,-0.1533,-0.1526,-0.1517,-0.1509,-0.1507,-0.1503,-0.1502,-0.15,-0.1509,-0.151,-0.1511,-0.1513,-0.1502,-0.1502,-0.1491,-0.1491,-0.1491]},{"header":{"parameterUnit":"m.s-1","parameterCategory":1,"la1":30.2991,"la2":30.254,"lo1":-89.0895,"lo2":-89.0444,"dy":0.0017,"dx":0.0017,"nx":28,"ny":28,"refTime":"2025-06-14T21:00:00:Z","depth":0,"parameterNumber":3,"parameterNumberName":"V-component_of_WINDS"},"data":[0,0,0,0,0,0,0,0,0,0,0,0,0,0,0,0,0,0,0,0,0,0,0,0,0,0,0,0,0,0,0,0,0,0,0,0,0,0,0,0,0,0,0,0,0,0,0,0,0,0,0,0,0,0,0,0,0,0,5.5772,5.5772,0,5.5783,5.5783,5.5783,5.5758,5.5757,5.5757,5.5756,5.5763,5.5764,5.5765,0,0,0,0,0,0,0,0,0,0,0,0,0,5.5727,5.5728,5.5772,5.5772,5.5772,5.5783,5.5783,5.5783,5.5758,5.5757,5.5756,5.5756,5.5763,5.5764,5.5765,0,0,0,0,0,0,0,0,0,0,0,0,0,5.5743,5.5728,5.5772,5.5761,5.576,5.5783,5.5783,5.5783,5.5759,5.5757,5.5756,5.5755,5.5763,5.5764,5.5766,5.5797,0,0,5.577,5.577,0,0,0,0,0,0,0,0,5.5742,5.5745,5.5762,5.5762,5.5761,5.5768,5.577,5.5788,5.5759,5.5759,5.5756,5.5755,5.5766,5.5767,5.5771,5.5798,5.5798,5.577,5.5771,5.5771,5.5772,0,0,0,0,0,0,0,5.5741,5.5744,5.5776,5.5763,5.5762,5.5755,5.5756,5.5773,5.5769,5.5759,5.5757,5.5759,5.5765,5.577,5.5771,5.5798,5.577,5.5771,5.5772,5.5772,5.5854,5.5855,0,0,0,0,0,0,5.5742,5.5743,5.5775,5.5776,5.5749,5.5757,5.5758,5.5767,5.5768,5.5768,5.576,5.5758,5.5768,5.577,5.5771,5.581,5.5771,5.5773,5.5773,5.5852,5.5854,5.5855,0,0,0,0,0,0,5.5741,5.5745,5.5775,5.5759,5.5763,5.5759,5.5769,5.5768,5.5773,5.5769,5.5768,5.5766,5.5767,5.5769,5.5792,5.581,5.5773,5.5774,5.5851,5.5853,5.5855,5.5887,0,0,0,0,0,0,5.574,5.5745,5.5757,5.576,5.5764,5.5796,5.577,5.5769,5.5776,5.5773,5.5775,5.5774,5.5767,5.579,5.5793,5.5811,5.5776,5.5849,5.5852,5.5854,5.5884,5.589,5.5895,0,0,0,0,0,5.5738,5.5764,5.5758,5.5762,5.5779,5.5797,5.5799,5.5791,5.5777,5.5789,5.5788,5.5774,5.5808,5.5792,5.5796,5.5815,5.5848,5.5851,5.5854,5.5882,5.5889,5.5895,0,0,0,0,0,0,5.5761,5.5764,5.5757,5.5785,5.5791,5.5793,5.5808,5.5798,5.5807,5.5804,5.5793,5.5794,5.5819,5.5819,5.5802,5.5847,5.5825,5.5829,5.5846,5.5852,5.5857,5.5856,5.5777,0,0,0,0,0,5.577,5.5785,5.5787,5.5811,5.5815,5.5811,5.5818,5.5813,5.5818,5.582,5.5819,5.5824,5.5836,5.5844,5.5855,5.5885,5.5885,5.5899,5.5905,5.5909,5.5912,5.5929,5.5936,5.5865,5.5865,5.5865,0,0,5.5787,5.5791,5.5801,5.5816,5.582,5.5836,5.5813,5.583,5.5842,5.5822,5.5844,5.5844,5.5849,5.5876,5.5887,5.5876,5.5932,5.5913,5.5916,5.5917,5.5933,5.594,5.5946,5.5867,5.5867,5.5866,0,0,5.5827,5.5831,5.5853,5.5858,5.5866,5.5864,5.5869,5.5873,5.5873,5.5896,5.5882,5.5895,5.5915,5.592,5.5925,5.597,5.5958,5.5974,5.6,5.6017,5.6023,5.6028,5.6045,5.6051,5.5977,5.5977,5.5977,0,5.5846,5.5871,5.5865,5.5884,5.5891,5.5877,5.5899,5.5904,5.5914,5.5919,5.5908,5.5935,5.5937,5.5965,5.5977,5.5981,5.5987,5.5973,5.6023,5.6028,5.6032,5.6048,5.6055,5.5979,5.5979,5.5979,5.5979,0,5.5896,5.5913,5.593,5.5943,5.5952,5.5972,5.5969,5.5979,5.5973,5.5972,5.5996,5.5999,5.601,5.6017,5.601,5.6045,5.6038,5.6025,5.6003,5.6041,5.6056,5.6062,5.5982,5.5981,5.5981,5.598,0,0,5.5947,5.5959,5.5966,5.5972,5.5981,5.5994,5.6014,5.6028,5.6038,5.6045,5.6062,5.6082,5.607,5.6076,5.607,5.6085,5.6122,5.607,5.607,5.608,5.6162,5.6172,5.6179,5.6115,5.6116,5.6117,5.6162,0,5.5987,5.6024,5.6021,5.6055,5.6072,5.606,5.6078,5.6085,5.6086,5.6099,5.6099,5.6113,5.6097,5.61,5.6115,5.6115,5.6138,5.6111,5.613,5.613,5.6129,5.6187,5.6197,5.624,5.6168,5.6169,5.6169,0,5.6038,5.6051,5.6088,5.6097,5.6104,5.612,5.6134,5.6147,5.6156,5.6155,5.6163,5.6155,5.6176,5.6155,5.6183,5.6164,5.6172,5.6173,5.6175,5.6176,5.6152,5.619,5.6253,5.6259,5.6178,5.6177,5.6177,0,5.6073,5.6099,5.6126,5.6132,5.6143,5.6155,5.616,5.6167,5.6177,5.6188,5.6194,5.6207,5.6214,5.6225,5.622,5.6205,5.625,5.6228,5.6249,5.625,5.6259,5.6258,5.6324,5.6264,5.6264,5.6263,5.6263,0,5.6117,5.6141,5.6142,5.6158,5.6184,5.6181,5.6206,5.621,5.6217,5.6233,5.6223,5.6238,5.6232,5.6247,5.6244,5.6268,5.6271,5.6271,5.627,5.6272,5.6272,5.6276,5.6273,5.6265,5.6265,5.6264,5.6264,0,5.616,5.6162,5.619,5.62,5.6203,5.6222,5.623,5.6245,5.6246,5.6267,5.6271,5.6272,5.629,5.6287,5.6305,5.6303,5.6334,5.6329,5.6332,5.633,5.6353,5.6351,5.6424,5.6433,5.6366,5.6367,5.6368,0,5.6188,5.6206,5.622,5.6231,5.6238,5.6256,5.6267,5.6264,5.6275,5.6288,5.6302,5.6319,5.6332,5.636,5.6362,5.6376,5.6371,5.6396,5.6373,5.6376,5.6372,5.6372,5.6374,5.64,5.6401,5.6402,5.6402,0,5.6238,5.624,5.6256,5.6275,5.6288,5.6302,5.6313,5.6323,5.6322,5.6335,5.6354,5.6365,5.6385,5.6402,5.6416,5.642,5.6411,5.641,5.6416,5.6418,5.6419,5.642,5.6344,5.6408,5.6407,5.6407,5.6406,5.6406,5.6275,5.6292,5.6305,5.6324,5.6334,5.6347,5.6363,5.6367,5.6383,5.6402,5.6399,5.642,5.643,5.6449,5.6454,5.6471,5.6461,5.647,5.6472,5.6474,5.6477,5.6417,5.6473,5.6473,5.6473,5.6473,5.6472,0,5.6325,5.6334,5.6353,5.6372,5.6388,5.6381,5.6395,5.6408,5.6428,5.6439,5.6453,5.6476,5.6493,5.6497,5.6514,5.6526,5.6522,5.653,5.6529,5.6531,5.6484,5.6478,5.6533,5.6533,5.6533,5.6533,5.6533,5.6533,5.6353,5.6382,5.6386,5.642,5.6428,5.6451,5.646,5.6471,5.648,5.6507,5.6522,5.6526,5.6534,5.6552,5.6567,5.6568,5.6575,5.6585,5.6584,5.654,5.6534,5.6528,5.6522,5.6586,5.6586,5.6629,5.663,5.663]}]]